Weather History for Carlsbad, NM

Change the Weather History Date:

Friday, November 8, 2013

  Actual Average Record
Temperature  
Mean Temperature 52 °F -  
Max Temperature 66 °F 70 °F 90 °F (2005)
Min Temperature 39 °F 39 °F 28 °F (2008)
Degree Days  
Heating Degree Days 12    
Growing Degree Days 2 (Base 50)    
Moisture  
Dew Point 31 °F    
Average Humidity 49    
Maximum Humidity 93    
Minimum Humidity 23    
Precipitation  
Precipitation 0.00 in - - ()
Sea Level Pressure  
Sea Level Pressure 30.08 in    
Wind  
Wind Speed 8 mph (SSE)    
Max Wind Speed 21 mph    
Max Gust Speed 29 mph    
Visibility 10 miles    
Events      
Averages and records for this station are not official NWS values.
T = Trace of Precipitation, MM = Missing Value Source: NWS Daily Summary

Daily Weather History Graph

Daily Weather History Graph

Search for Another Location

Airport:

Trip Planner

Search our weather history database for the weather conditions in past years. The results will help you decide how hot, cold, wet, or windy it might be!

Date:

Astronomy

Nov. 08, 2013 Rise Set
Actual Time 6:20 AM MST 5:00 PM MST
Civil Twilight 5:54 AM MST 5:26 PM MST
Nautical Twilight 5:25 AM MST 5:55 PM MST
Astronomical Twilight 4:56 AM MST 6:24 PM MST
Moon 11:17 AM MST (11/8) 10:23 PM MST (11/8)
Length of Visible Light 11h 31m
Length of Day
10h 40m
Waxing Crescent, 34% of the Moon is Illuminated
Nov 8
Waxing Crescent
Nov 9
First Quarter
Nov 17
Full
Nov 25
Last Quarter
Dec 2
New

Hourly Weather History & Observations

Time (MST) Temp. Windchill Dew Point Humidity Pressure Visibility Wind Dir Wind Speed Gust Speed Precip Events Conditions
12:53 AM 42.1 °F 39.2 °F 21.0 °F 43% 30.22 in 10.0 mi SE 4.6 mph - N/A   Partly Cloudy
1:53 AM 45.0 °F 41.8 °F 21.0 °F 39% 30.20 in 10.0 mi SE 5.8 mph - N/A   Scattered Clouds
2:53 AM 39.0 °F 35.7 °F 21.0 °F 49% 30.21 in 10.0 mi SW 4.6 mph - N/A   Scattered Clouds
3:53 AM 43.0 °F 38.8 °F 21.0 °F 42% 30.18 in 10.0 mi South 6.9 mph - N/A   Clear
4:53 AM 42.1 °F 39.2 °F 21.9 °F 45% 30.19 in 10.0 mi SSE 4.6 mph - N/A   Scattered Clouds
5:53 AM 44.1 °F 42.5 °F 21.9 °F 42% 30.19 in 10.0 mi South 3.5 mph - N/A   Overcast
6:53 AM 44.1 °F 42.5 °F 24.1 °F 45% 30.19 in 10.0 mi East 3.5 mph - N/A   Overcast
7:53 AM 48.9 °F - 21.9 °F 35% 30.19 in 10.0 mi SE 5.8 mph - N/A   Mostly Cloudy
8:53 AM 50.0 °F - 21.9 °F 33% 30.17 in 10.0 mi SSE 5.8 mph - N/A   Overcast
9:53 AM 55.0 °F - 24.1 °F 30% 30.15 in 10.0 mi SE 10.4 mph - 0.00 in   Mostly Cloudy
10:53 AM 59.0 °F - 30.0 °F 33% 30.11 in 10.0 mi North - - N/A   Mostly Cloudy
11:53 AM 62.1 °F - 30.0 °F 30% 30.07 in 10.0 mi SSE 12.7 mph - N/A   Clear
12:53 PM 63.0 °F - 30.9 °F 30% 30.02 in 10.0 mi SSE 13.8 mph - N/A   Clear
1:53 PM 66.9 °F - 32.0 °F 27% 29.98 in 10.0 mi SE 20.7 mph 25.3 mph N/A   Clear
2:53 PM 66.0 °F - 27.0 °F 23% 29.97 in 10.0 mi SE 19.6 mph 28.8 mph N/A   Clear
3:53 PM 66.0 °F - 32.0 °F 28% 29.94 in 10.0 mi SSE 19.6 mph 23.0 mph N/A   Clear
4:53 PM 63.0 °F - 43.0 °F 48% 29.94 in 10.0 mi SE 11.5 mph - N/A   Clear
5:53 PM 59.0 °F - 46.0 °F 62% 29.96 in 10.0 mi SSE 16.1 mph - N/A   Clear
6:53 PM 54.0 °F - 44.1 °F 69% 29.99 in 10.0 mi SSE 10.4 mph - N/A   Clear
7:53 PM 51.1 °F - 44.1 °F 77% 29.99 in 10.0 mi SSE 9.2 mph - N/A   Clear
8:53 PM 48.9 °F - 42.1 °F 77% 30.00 in 10.0 mi SSE 5.8 mph - N/A   Clear
9:53 PM 45.0 °F 41.8 °F 41.0 °F 86% 29.99 in 10.0 mi South 5.8 mph - N/A   Clear
10:53 PM 43.0 °F 39.5 °F 39.9 °F 89% 29.98 in 10.0 mi SSE 5.8 mph - N/A   Clear
11:53 PM 39.9 °F - 37.9 °F 93% 29.98 in 10.0 mi Calm Calm - N/A   Clear